{"data":{"norad_id":39216,"epoch":"2026-09-20T00:25:45.910272Z","epoch_age_seconds":59767,"freshness":"FRESH","line1":"1 39216U 13038B   26263.01789248 -.00000343  00000+0  00000+0 0  9993","line2":"2 39216   2.1634  81.2355 0001364 110.8970 302.7400  1.00269700 48039","mean_motion":1.002697,"eccentricity":0.0001364,"inclination_deg":2.1634,"raan_deg":81.2355,"arg_perigee_deg":110.897,"mean_anomaly_deg":302.74,"bstar":0,"rev_number":4803,"period_min":1436.1267661118,"perigee_km":35781.42812334,"apogee_km":35792.930821674,"semimajor_km":42165.316472507,"source":"CELESTRAK","updated_at":"2026-09-20T09:00:35.205387Z"}}